tititudorancea.com
Station Historical Data
Daily Summary for January 10, 2018 Units:  Metric    English   Both
« Previous Day
Next Day »
Daily Weekly Monthly Yearly Custom
  High: Low: Average:
Temperature: -17.8 °C 8.9 °C 10.5 °C
Dew Point: -17.8 °C 6.2 °C 7.2 °C
Humidity: Humidity % 53 % 80 %
Wind Speed: 0 km/h 0.6 km/h 7.4 km/h
Wind Gust: 0 km/h - -
Wind:- - WSW
Pressure: 0 hPa 1012.8 hPa -
Precipitation: 0 mm    
Historical Graphs
 
 
Ararat weather Find more about Weather in Ararat, AU


 



 


Tabular Data for January 10, 2018
Time Temperature Dew Point Pressure Wind Wind Speed Wind Gust Humidity Rainfall Rate (Hourly)
-17.8 °C -17.8 °C 0 hPa Calm     Humidity % 0 mm
00:00 11.3 °C 7.1 °C 1018.5 hPa North 5.3 km/h 7.4 km/h 75 % 0 mm
00:02 11.3 °C 7.2 °C 1018.5 hPa North 7.9 km/h 9.3 km/h 76 % 0 mm
00:05 11.2 °C 7.2 °C 1018.5 hPa North 3.5 km/h 7.4 km/h 76 % 0 mm
00:06 11.2 °C 7.2 °C 1018.5 hPa South 4 km/h 9.7 km/h 76 % 0 mm
00:10 11.1 °C 7.2 °C 1018.5 hPa South 4.7 km/h 9.7 km/h 77 % 0 mm
00:11 11.1 °C 7.2 °C 1018.5 hPa North 6.3 km/h 9.3 km/h 77 % 0 mm
00:13 11.1 °C 7.2 °C 1018.5 hPa South 4.8 km/h 13 km/h 77 % 0 mm
00:14 11.1 °C 7.2 °C 1018.5 hPa South 0.6 km/h 13 km/h 77 % 0 mm
00:16 11 °C 7.1 °C 1018.5 hPa North 7.2 km/h 9.3 km/h 77 % 0 mm
00:20 10.9 °C 7.1 °C 1018.5 hPa South 7.2 km/h 11.1 km/h 77 % 0 mm
00:21 10.9 °C 7.3 °C 1018.5 hPa South 7.9 km/h 7.9 km/h 78 % 0 mm
00:22 10.9 °C 7.3 °C 1018.5 hPa South 7.6 km/h 14.8 km/h 78 % 0 mm
00:23 10.9 °C 7.2 °C 1018.5 hPa North 7.1 km/h 14.8 km/h 78 % 0 mm
00:24 10.9 °C 7.3 °C 1018.5 hPa North 5.8 km/h 13 km/h 78 % 0 mm
00:25 10.9 °C 7.2 °C 1018.2 hPa North 5 km/h 7.4 km/h 78 % 0 mm
00:26 10.9 °C 7.2 °C 1018.2 hPa South 4.3 km/h 9.3 km/h 78 % 0 mm
00:27 10.9 °C 7.2 °C 1018.2 hPa North 5.3 km/h 9.3 km/h 78 % 0 mm
00:28 10.9 °C 7.2 °C 1018.2 hPa North 6.3 km/h 13 km/h 78 % 0 mm
00:29 10.8 °C 7.2 °C 1018.2 hPa South 6.6 km/h 13 km/h 78 % 0 mm
00:30 10.8 °C 7.2 °C 1018.2 hPa South 7.7 km/h 11.1 km/h 78 % 0 mm
00:31 10.8 °C 7.2 °C 1018.2 hPa North 6.9 km/h 12.9 km/h 78 % 0 mm
00:32 10.8 °C 7.2 °C 1018.2 hPa South 5.1 km/h 13 km/h 78 % 0 mm
00:35 10.8 °C 7.1 °C 1018.2 hPa South 7.4 km/h 11.1 km/h 78 % 0 mm
00:38 10.7 °C 7.1 °C 1018.2 hPa South 8.2 km/h 8.2 km/h 78 % 0 mm
00:39 10.7 °C 7.1 °C 1018.2 hPa North 6 km/h 11.1 km/h 78 % 0 mm
00:40 10.7 °C 7.2 °C 1018.2 hPa South 4.8 km/h 7.4 km/h 79 % 0 mm
00:41 10.7 °C 7.2 °C 1018.2 hPa North 4.7 km/h 7.4 km/h 79 % 0 mm
00:42 10.7 °C 7.2 °C 1018.2 hPa North 8.5 km/h 11.1 km/h 79 % 0 mm
00:43 10.7 °C 7.2 °C 1018.2 hPa North 8.5 km/h 11.1 km/h 79 % 0 mm
00:46 10.6 °C 7.1 °C 1018.2 hPa South 4.8 km/h 14.8 km/h 79 % 0 mm
00:47 10.6 °C 7.1 °C 1018.2 hPa South 7.4 km/h 9.3 km/h 79 % 0 mm
00:48 10.6 °C 7.1 °C 1018.2 hPa North 7.7 km/h 9.3 km/h 79 % 0 mm
00:49 10.6 °C 7.1 °C 1018.2 hPa South 6.9 km/h 9.3 km/h 79 % 0 mm
00:52 10.5 °C 7 °C 1018.2 hPa South 6.6 km/h 11.3 km/h 79 % 0 mm
00:54 10.5 °C 7 °C 1017.8 hPa North 9.2 km/h 14.8 km/h 79 % 0 mm
00:55 10.5 °C 7 °C 1017.8 hPa South 5.3 km/h 11.3 km/h 79 % 0 mm
00:56 10.4 °C 6.9 °C 1017.8 hPa North 5.5 km/h 11.1 km/h 79 % 0 mm
00:59 10.4 °C 7.2 °C 1017.8 hPa South 9.7 km/h 11.1 km/h 80 % 0 mm
01:01 10.4 °C 7.2 °C 1017.8 hPa North 7.6 km/h 9.3 km/h 80 % 0 mm
01:02 10.4 °C 7.1 °C 1017.8 hPa South 9.5 km/h 16.7 km/h 80 % 0 mm
01:05 10.4 °C 7.1 °C 1017.5 hPa South 8.7 km/h 11.1 km/h 80 % 0 mm
01:08 10.4 °C 7.1 °C 1017.5 hPa North 9.5 km/h 13 km/h 80 % 0 mm
01:09 10.4 °C 7.1 °C 1017.5 hPa South 6.9 km/h 14.8 km/h 80 % 0 mm
01:10 10.3 °C 7.1 °C 1017.5 hPa North 6.6 km/h 11.1 km/h 80 % 0 mm
01:11 10.4 °C 7.1 °C 1017.5 hPa South 4.8 km/h 7.4 km/h 80 % 0 mm
01:12 10.3 °C 7.1 °C 1017.5 hPa South 5.1 km/h 12.9 km/h 80 % 0 mm
01:15 10.3 °C 7.1 °C 1017.8 hPa North 7.7 km/h 11.1 km/h 80 % 0 mm
01:16 10.3 °C 7.1 °C 1017.8 hPa North 7.2 km/h 11.1 km/h 80 % 0 mm
01:17 10.3 °C 7.1 °C 1017.8 hPa North 6.9 km/h 13 km/h 80 % 0 mm
01:18 10.3 °C 7 °C 1017.8 hPa South 6 km/h 13 km/h 80 % 0 mm
01:19 10.3 °C 7 °C 1017.8 hPa South 6.3 km/h 13 km/h 80 % 0 mm
01:20 10.3 °C 7 °C 1017.8 hPa South 7.2 km/h 9.3 km/h 80 % 0 mm
01:22 10.3 °C 7 °C 1017.8 hPa South 6.4 km/h 11.1 km/h 80 % 0 mm
01:23 10.3 °C 7 °C 1017.8 hPa North 6.1 km/h 11.1 km/h 80 % 0 mm
01:24 10.3 °C 7 °C 1017.8 hPa South 4.7 km/h 9.3 km/h 80 % 0 mm
01:25 10.2 °C 6.9 °C 1017.8 hPa South 4.5 km/h 7.4 km/h 80 % 0 mm
01:28 10.2 °C 6.9 °C 1017.8 hPa North 4.8 km/h 7.4 km/h 80 % 0 mm
01:31 10.2 °C 7.1 °C 1017.8 hPa South 7.4 km/h 13 km/h 81 % 0 mm
01:32 10.2 °C 7.1 °C 1017.5 hPa South 6.8 km/h 11.3 km/h 81 % 0 mm
01:33 10.2 °C 7.1 °C 1017.8 hPa South 9.5 km/h 14.5 km/h 81 % 0 mm
01:34 10.2 °C 7.1 °C 1017.8 hPa South 6.9 km/h 14.8 km/h 81 % 0 mm
01:35 10.2 °C 7.1 °C 1017.8 hPa South 6.9 km/h 14.8 km/h 81 % 0 mm
01:36 10.2 °C 7.1 °C 1017.8 hPa South 5.6 km/h 13 km/h 81 % 0 mm
01:37 10.2 °C 7.1 °C 1017.8 hPa North 6.1 km/h 9.3 km/h 81 % 0 mm
01:38 10.2 °C 7.1 °C 1017.8 hPa South 5.1 km/h 11.1 km/h 81 % 0 mm
01:41 10.1 °C 7 °C 1017.8 hPa South 4 km/h 6.4 km/h 81 % 0 mm
01:43 10.1 °C 7 °C 1017.8 hPa North 4.2 km/h 7.4 km/h 81 % 0 mm
01:44 10.1 °C 7 °C 1017.8 hPa South 3.5 km/h 6.4 km/h 81 % 0 mm
01:45 10.1 °C 6.9 °C 1017.8 hPa South 5.8 km/h 7.4 km/h 81 % 0 mm
01:46 10.1 °C 6.9 °C 1017.8 hPa South 6.3 km/h 11.3 km/h 81 % 0 mm
01:47 10.1 °C 6.9 °C 1017.8 hPa South 8.7 km/h 13 km/h 81 % 0 mm
01:49 10.1 °C 6.9 °C 1017.8 hPa South 7.4 km/h 11.1 km/h 81 % 0 mm
01:50 10.1 °C 6.9 °C 1017.8 hPa South 6.4 km/h 9.3 km/h 81 % 0 mm
01:51 10.1 °C 6.9 °C 1017.8 hPa South 5.5 km/h 7.4 km/h 81 % 0 mm
01:52 10.1 °C 6.9 °C 1017.8 hPa South 3.9 km/h 7.4 km/h 81 % 0 mm
01:54 10 °C 6.9 °C 1017.8 hPa South 6.1 km/h 9.3 km/h 81 % 0 mm
01:55 10 °C 6.9 °C 1017.8 hPa North 6.1 km/h 7.4 km/h 81 % 0 mm
01:56 10 °C 6.9 °C 1017.8 hPa North 5.1 km/h 7.4 km/h 81 % 0 mm
01:58 10 °C 6.9 °C 1017.8 hPa North 4.3 km/h 6.4 km/h 81 % 0 mm
02:00 10 °C 6.9 °C 1017.8 hPa South 6 km/h 7.4 km/h 81 % 0 mm
02:02 10 °C 6.9 °C 1017.8 hPa North 3.4 km/h 7.4 km/h 81 % 0 mm
02:03 9.9 °C 6.8 °C 1017.8 hPa North 5.1 km/h 7.4 km/h 81 % 0 mm
02:05 9.9 °C 6.8 °C 1017.8 hPa South 5 km/h 9.3 km/h 81 % 0 mm
02:06 9.9 °C 6.8 °C 1017.8 hPa South 4 km/h 9.3 km/h 81 % 0 mm
02:10 9.9 °C 6.8 °C 1017.8 hPa North 6.6 km/h 7.4 km/h 81 % 0 mm
02:11 9.9 °C 6.8 °C 1017.8 hPa North 7.1 km/h 9.3 km/h 81 % 0 mm
02:12 9.9 °C 6.8 °C 1017.8 hPa North 5.8 km/h 9.3 km/h 81 % 0 mm
02:14 9.9 °C 6.8 °C 1017.8 hPa South 3.5 km/h 7.4 km/h 81 % 0 mm
02:15 9.9 °C 6.8 °C 1017.8 hPa South 3.1 km/h 7.4 km/h 81 % 0 mm
02:16 9.9 °C 6.8 °C 1017.8 hPa North 5.5 km/h 9.3 km/h 81 % 0 mm
02:17 9.9 °C 6.8 °C 1017.8 hPa North 3.1 km/h 5.6 km/h 81 % 0 mm
02:18 9.9 °C 6.8 °C 1017.8 hPa North 2.4 km/h 5.6 km/h 81 % 0 mm
02:19 9.8 °C 6.7 °C 1017.8 hPa North 3.9 km/h 7.4 km/h 81 % 0 mm
02:20 9.8 °C 6.7 °C 1017.8 hPa North 7.7 km/h 11.1 km/h 81 % 0 mm
02:21 9.8 °C 6.7 °C 1017.8 hPa North 2.7 km/h 9.3 km/h 81 % 0 mm
02:23 9.8 °C 6.7 °C 1017.8 hPa North 3.9 km/h 5.6 km/h 81 % 0 mm
02:24 9.8 °C 6.7 °C 1017.8 hPa South 5 km/h 8 km/h 81 % 0 mm
02:26 9.7 °C 6.6 °C 1017.8 hPa North 2.4 km/h 5.6 km/h 81 % 0 mm
02:28 9.7 °C 6.6 °C 1017.8 hPa South 2.3 km/h 7.4 km/h 81 % 0 mm
02:29 9.7 °C 6.6 °C 1017.8 hPa North 1.6 km/h 4.8 km/h 81 % 0 mm
02:30 9.7 °C 6.6 °C 1017.8 hPa North 4.3 km/h 4.8 km/h 81 % 0 mm
02:31 9.7 °C 6.6 °C 1017.8 hPa North 6.1 km/h 7.4 km/h 81 % 0 mm
02:32 9.7 °C 6.6 °C 1017.8 hPa South 4.2 km/h 7.4 km/h 81 % 0 mm
02:33 9.7 °C 6.7 °C 1017.8 hPa North 4.5 km/h 7.4 km/h 82 % 0 mm
02:34 9.7 °C 6.7 °C 1017.8 hPa South 2.1 km/h 7.4 km/h 82 % 0 mm
02:35 9.6 °C 6.7 °C 1017.8 hPa South 5.6 km/h 9.3 km/h 82 % 0 mm
02:36 9.6 °C 6.7 °C 1017.8 hPa South 6.1 km/h 9.3 km/h 82 % 0 mm
02:37 9.6 °C 6.7 °C 1017.8 hPa North 2.3 km/h 3.7 km/h 82 % 0 mm
02:38 9.6 °C 6.6 °C 1017.8 hPa South 5.1 km/h 9.3 km/h 82 % 0 mm
02:39 9.6 °C 6.6 °C 1017.8 hPa South 4.7 km/h 9.3 km/h 82 % 0 mm
02:40 9.6 °C 6.6 °C 1017.8 hPa South 5.8 km/h 9.3 km/h 82 % 0 mm
02:43 9.5 °C 6.6 °C 1017.5 hPa South 3.5 km/h 7.4 km/h 82 % 0 mm
02:44 9.5 °C 6.6 °C 1017.5 hPa North 2.9 km/h 7.4 km/h 82 % 0 mm
02:45 9.5 °C 6.6 °C 1017.5 hPa South 2.7 km/h 7.4 km/h 82 % 0 mm
02:46 9.5 °C 6.6 °C 1017.5 hPa South 3.2 km/h 6.4 km/h 82 % 0 mm
02:47 9.4 °C 6.5 °C 1017.5 hPa South 7.4 km/h 11.1 km/h 82 % 0 mm
02:52 9.4 °C 6.5 °C 1017.5 hPa South 5 km/h 9.3 km/h 82 % 0 mm
02:53 9.4 °C 6.4 °C 1017.5 hPa South 4.2 km/h 9.3 km/h 82 % 0 mm
02:55 9.4 °C 6.4 °C 1017.5 hPa North 5.5 km/h 7.4 km/h 82 % 0 mm
02:56 9.3 °C 6.4 °C 1017.5 hPa South 4.2 km/h 7.4 km/h 82 % 0 mm
02:57 9.3 °C 6.4 °C 1017.5 hPa North 2.9 km/h 7.4 km/h 82 % 0 mm
02:58 9.3 °C 6.4 °C 1017.5 hPa South 3.5 km/h 3.7 km/h 82 % 0 mm
02:59 9.3 °C 6.4 °C 1017.5 hPa North 4 km/h 4.8 km/h 82 % 0 mm
03:00 9.3 °C 6.4 °C 1017.5 hPa South 2.7 km/h 5.6 km/h 82 % 0 mm
03:01 9.3 °C 6.4 °C 1017.5 hPa South 2.4 km/h 5.6 km/h 82 % 0 mm
03:02 9.2 °C 6.3 °C 1017.5 hPa North 2.4 km/h 5.6 km/h 82 % 0 mm
03:03 9.2 °C 6.3 °C 1017.5 hPa South 2.4 km/h 6.4 km/h 82 % 0 mm
03:04 9.2 °C 6.5 °C 1017.5 hPa North 5.5 km/h 7.4 km/h 83 % 0 mm
03:05 9.2 °C 6.5 °C 1017.5 hPa North 6 km/h 7.4 km/h 83 % 0 mm
03:06 9.2 °C 6.5 °C 1017.5 hPa North 3.7 km/h 7.4 km/h 83 % 0 mm
03:07 9.2 °C 6.4 °C 1017.5 hPa South 2.1 km/h 5.6 km/h 83 % 0 mm
03:08 9.2 °C 6.4 °C 1017.5 hPa North 2.6 km/h 5.6 km/h 83 % 0 mm
03:09 9.2 °C 6.4 °C 1017.5 hPa North 5.8 km/h 7.4 km/h 83 % 0 mm
03:10 9.2 °C 6.4 °C 1017.5 hPa South 4 km/h 5.6 km/h 83 % 0 mm
03:11 9.2 °C 6.4 °C 1017.5 hPa North 1.9 km/h 5.6 km/h 83 % 0 mm
03:12 9.1 °C 6.4 °C 1017.5 hPa North 1.6 km/h 5.6 km/h 83 % 0 mm
03:13 9.1 °C 6.4 °C 1017.5 hPa North 4.3 km/h 7.4 km/h 83 % 0 mm
03:14 9.1 °C 6.4 °C 1017.5 hPa South 2.3 km/h 5.6 km/h 83 % 0 mm
03:18 9.1 °C 6.4 °C 1017.5 hPa North 2.7 km/h 5.6 km/h 83 % 0 mm
03:20 9.1 °C 6.3 °C 1017.2 hPa North 4.3 km/h 7.4 km/h 83 % 0 mm
03:22 9 °C 6.3 °C 1017.2 hPa North 2.6 km/h 7.4 km/h 83 % 0 mm
03:23 9 °C 6.3 °C 1017.2 hPa South 2.3 km/h 3.7 km/h 83 % 0 mm
03:24 9 °C 6.3 °C 1017.2 hPa North 2.7 km/h 5.6 km/h 83 % 0 mm
03:26 8.9 °C 6.2 °C 1017.2 hPa South 4 km/h 9.3 km/h 83 % 0 mm
03:27 8.9 °C 6.2 °C 1017.2 hPa South 3.9 km/h 6.4 km/h 83 % 0 mm
03:28 8.9 °C 6.4 °C 1017.2 hPa North 5.3 km/h 7.4 km/h 84 % 0 mm
03:29 8.9 °C 6.4 °C 1017.2 hPa South 4.8 km/h 7.4 km/h 84 % 0 mm
03:30 8.9 °C 6.4 °C 1017.2 hPa South 2.3 km/h 7.4 km/h 84 % 0 mm
03:33 8.9 °C 6.4 °C 1016.8 hPa North 7.7 km/h 11.1 km/h 84 % 0 mm
03:34 9 °C 6.4 °C 1016.8 hPa South 5 km/h 9.3 km/h 84 % 0 mm
03:35 9 °C 6.4 °C 1016.8 hPa North 3.9 km/h 9.3 km/h 84 % 0 mm
03:39 9 °C 6.4 °C 1016.8 hPa South 4.8 km/h 9.3 km/h 84 % 0 mm
03:41 9 °C 6.4 °C 1016.8 hPa South 6.3 km/h 7.4 km/h 84 % 0 mm
03:42 9 °C 6.4 °C 1016.8 hPa South 7.7 km/h 9.7 km/h 84 % 0 mm
03:43 9 °C 6.4 °C 1016.8 hPa North 7.1 km/h 9.3 km/h 84 % 0 mm
03:44 9 °C 6.4 °C 1016.8 hPa South 6.3 km/h 9.3 km/h 84 % 0 mm
03:45 9 °C 6.4 °C 1016.8 hPa South 6.4 km/h 9.3 km/h 84 % 0 mm
03:46 9 °C 6.4 °C 1016.8 hPa North 8.4 km/h 9.3 km/h 84 % 0 mm
03:47 9 °C 6.4 °C 1016.8 hPa South 9.2 km/h 13 km/h 84 % 0 mm
03:48 9 °C 6.4 °C 1016.8 hPa North 7.7 km/h 13 km/h 84 % 0 mm
03:50 9 °C 6.4 °C 1016.8 hPa South 6 km/h 8 km/h 84 % 0 mm
03:52 9 °C 6.4 °C 1016.8 hPa North 6.9 km/h 11.1 km/h 84 % 0 mm
03:53 9 °C 6.4 °C 1017.2 hPa South 7.4 km/h 11.1 km/h 84 % 0 mm
03:55 8.9 °C 6.4 °C 1017.2 hPa North 6.4 km/h 9.3 km/h 84 % 0 mm
03:58 8.9 °C 6.4 °C 1017.2 hPa South 8.7 km/h 12.9 km/h 84 % 0 mm
04:01 8.9 °C 6.4 °C 1016.8 hPa South 7.9 km/h 11.3 km/h 84 % 0 mm
04:03 9 °C 6.4 °C 1016.8 hPa South 6.6 km/h 11.1 km/h 84 % 0 mm
04:04 9 °C 6.4 °C 1016.8 hPa North 6 km/h 11.1 km/h 84 % 0 mm
04:05 9 °C 6.4 °C 1016.8 hPa North 7.1 km/h 11.1 km/h 84 % 0 mm
04:08 9 °C 6.4 °C 1016.8 hPa North 8 km/h 11.1 km/h 84 % 0 mm
04:13 9 °C 6.4 °C 1017.2 hPa South 8 km/h 11.1 km/h 84 % 0 mm
04:14 9 °C 6.4 °C 1017.2 hPa South 6.9 km/h 9.3 km/h 84 % 0 mm
04:15 9 °C 6.4 °C 1017.2 hPa South 7.7 km/h 11.3 km/h 84 % 0 mm
04:16 9 °C 6.6 °C 1017.2 hPa North 5.6 km/h 9.3 km/h 85 % 0 mm
04:17 9 °C 6.4 °C 1017.2 hPa North 6.3 km/h 7.4 km/h 84 % 0 mm
04:18 9.1 °C 6.7 °C 1017.2 hPa South 6.6 km/h 7.4 km/h 85 % 0 mm
04:20 9.1 °C 6.5 °C 1017.2 hPa South 6.6 km/h 9.3 km/h 84 % 0 mm
04:21 9.1 °C 6.5 °C 1016.8 hPa South 6.3 km/h 9.7 km/h 84 % 0 mm
04:22 9.1 °C 6.7 °C 1016.8 hPa South 8.2 km/h 9.7 km/h 85 % 0 mm
04:25 9.1 °C 6.6 °C 1017.2 hPa South 6.4 km/h 9.3 km/h 84 % 0 mm
04:26 9.1 °C 6.6 °C 1017.2 hPa South 4.7 km/h 11.1 km/h 84 % 0 mm
04:27 9.1 °C 6.6 °C 1017.2 hPa North 5.1 km/h 8 km/h 84 % 0 mm
04:28 9.2 °C 6.6 °C 1017.2 hPa South 7.7 km/h 9.3 km/h 84 % 0 mm
04:29 9.2 °C 6.6 °C 1017.2 hPa North 6.4 km/h 11.3 km/h 84 % 0 mm
04:30 9.2 °C 6.6 °C 1017.2 hPa South 8.2 km/h 11.1 km/h 84 % 0 mm
04:31 9.2 °C 6.6 °C 1017.2 hPa North 7.2 km/h 11.1 km/h 84 % 0 mm
04:38 9.2 °C 6.6 °C 1017.2 hPa South 8.9 km/h 13 km/h 84 % 0 mm
04:44 9.1 °C 6.6 °C 1017.2 hPa North 6 km/h 11.1 km/h 84 % 0 mm
04:48 9.1 °C 6.7 °C 1017.2 hPa South 8.7 km/h 12.9 km/h 85 % 0 mm
04:56 9.1 °C 6.6 °C 1016.8 hPa South 6.4 km/h 9.3 km/h 84 % 0 mm
04:57 9.1 °C 6.6 °C 1016.8 hPa South 6.8 km/h 9.3 km/h 84 % 0 mm
05:02 9 °C 6.6 °C 1016.8 hPa South 6.8 km/h 13 km/h 85 % 0 mm
05:09 9 °C 6.6 °C 1016.5 hPa South 6.3 km/h 9.7 km/h 85 % 0 mm
05:14 8.9 °C 6.6 °C 1016.8 hPa North 7.1 km/h 14.8 km/h 85 % 0 mm
05:18 9 °C 6.6 °C 1016.8 hPa South 7.2 km/h 11.1 km/h 85 % 0 mm
05:22 9 °C 6.6 °C 1016.8 hPa South 3.7 km/h 5.6 km/h 85 % 0 mm
05:24 9 °C 6.6 °C 1016.8 hPa South 6.8 km/h 9.3 km/h 85 % 0 mm
05:25 9 °C 6.6 °C 1016.8 hPa South 7.1 km/h 9.3 km/h 85 % 0 mm
05:29 8.9 °C 6.5 °C 1016.8 hPa South 5.3 km/h 7.4 km/h 85 % 0 mm
05:30 8.9 °C 6.5 °C 1016.8 hPa South 5.1 km/h 7.4 km/h 85 % 0 mm
05:33 8.9 °C 6.7 °C 1017.2 hPa South 9.7 km/h 13 km/h 86 % 0 mm
05:34 8.9 °C 6.7 °C 1017.2 hPa South 8.5 km/h 13 km/h 86 % 0 mm
05:35 8.9 °C 6.7 °C 1017.2 hPa North 7.7 km/h 13 km/h 86 % 0 mm
05:37 8.9 °C 6.7 °C 1017.2 hPa South 8.7 km/h 16.7 km/h 86 % 0 mm
05:41 8.9 °C 6.7 °C 1016.8 hPa South 10.5 km/h 11.1 km/h 86 % 0 mm
05:44 9 °C 6.8 °C 1016.8 hPa North 9.3 km/h 16.7 km/h 86 % 0 mm
05:45 9 °C 6.8 °C 1016.8 hPa South 7.9 km/h 14.8 km/h 86 % 0 mm
05:47 9.1 °C 6.8 °C 1016.8 hPa North 8.9 km/h 18.5 km/h 86 % 0 mm
05:49 9.1 °C 6.9 °C 1016.8 hPa South 9 km/h 11.1 km/h 86 % 0 mm
05:50 9.2 °C 6.9 °C 1016.5 hPa South 9.7 km/h 16.7 km/h 86 % 0 mm
05:51 9.2 °C 6.9 °C 1016.5 hPa South 9.3 km/h 14.8 km/h 86 % 0 mm
05:57 9.2 °C 6.9 °C 1016.5 hPa North 7.6 km/h 13 km/h 86 % 0 mm
06:03 9.1 °C 6.8 °C 1016.8 hPa North 6.8 km/h 16.7 km/h 86 % 0 mm
06:08 9 °C 6.8 °C 1016.8 hPa North 8.4 km/h 14.8 km/h 86 % 0 mm
06:13 8.9 °C 6.7 °C 1016.8 hPa North 6.8 km/h 11.1 km/h 86 % 0 mm
06:19 8.9 °C 6.7 °C 1016.5 hPa South 7.7 km/h 11.1 km/h 86 % 0 mm
06:24 8.9 °C 6.8 °C 1016.8 hPa South 8.4 km/h 14.5 km/h 87 % 0 mm
06:26 8.9 °C 6.8 °C 1016.8 hPa North 10.8 km/h 18.5 km/h 87 % 0 mm
06:32 8.9 °C 6.9 °C 1016.5 hPa North 10 km/h 13 km/h 87 % 0 mm
06:42 9.2 °C 7.1 °C 1016.8 hPa South 5.3 km/h 9.7 km/h 87 % 0 mm
06:52 9.4 °C 7.4 °C 1016.5 hPa South 10.9 km/h 14.8 km/h 87 % 0 mm
06:57 9.6 °C 7.3 °C 1016.5 hPa South 11.9 km/h 14.8 km/h 86 % 0 mm
07:02 9.7 °C 7.4 °C 1016.8 hPa South 9 km/h 14.8 km/h 86 % 0 mm
07:07 9.8 °C 7.6 °C 1016.8 hPa North 10.1 km/h 13 km/h 86 % 0 mm
07:13 9.9 °C 8.2 °C 1016.8 hPa SSW 11.3 km/h 18.5 km/h 89 % 0 mm
07:19 10.2 °C 7.8 °C 1016.8 hPa South 10.9 km/h 14.8 km/h 85 % 0 mm
07:25 10.4 °C 8 °C 1016.8 hPa South 12.7 km/h 16.7 km/h 85 % 0 mm
07:31 10.5 °C 7.9 °C 1016.8 hPa SSW 13.5 km/h 20.4 km/h 84 % 0 mm
07:35 10.7 °C 8.2 °C 1016.8 hPa SSW 12.1 km/h 22.2 km/h 85 % 0 mm
07:36 10.8 °C 8.2 °C 1016.8 hPa SSW 5.8 km/h 13 km/h 84 % 0 mm
07:37 10.8 °C 8.3 °C 1016.8 hPa South 5.8 km/h 8 km/h 85 % 0 mm
07:41 10.9 °C 8.3 °C 1017.2 hPa SSW 9 km/h 12.9 km/h 84 % 0 mm
07:42 10.9 °C 8.3 °C 1017.2 hPa SSW 12.9 km/h 19.3 km/h 84 % 0 mm
07:44 11 °C 8.2 °C 1017.2 hPa South 10.5 km/h 18.5 km/h 83 % 0 mm
07:49 11.2 °C 8.4 °C 1017.2 hPa South 10.1 km/h 13 km/h 83 % 0 mm
07:50 11.2 °C 8.4 °C 1017.2 hPa South 11.1 km/h 16.7 km/h 83 % 0 mm
07:51 11.2 °C 8.4 °C 1017.2 hPa South 9 km/h 16.7 km/h 83 % 0 mm
07:53 11.3 °C 8.3 °C 1017.2 hPa North 13.7 km/h 18.5 km/h 82 % 0 mm
07:55 11.3 °C 8.4 °C 1017.2 hPa South 8 km/h 13 km/h 82 % 0 mm
08:00 11.6 °C 8.6 °C 1017.5 hPa South 11.9 km/h 13 km/h 82 % 0 mm
08:03 11.7 °C 8.7 °C 1017.5 hPa SSW 14.6 km/h 18.5 km/h 82 % 0 mm
08:07 11.9 °C 8.9 °C 1017.5 hPa SSW 9.8 km/h 18.5 km/h 82 % 0 mm
08:17 12.5 °C 9.2 °C 1017.5 hPa South 7.6 km/h 13 km/h 80 % 0 mm
08:22 12.7 °C 9.1 °C 1017.5 hPa SSW 10.5 km/h 18.5 km/h 79 % 0 mm
08:27 12.7 °C 9 °C 1017.5 hPa North 11.3 km/h 16.7 km/h 78 % 0 mm
08:31 12.7 °C 8.9 °C 1017.2 hPa South 14.5 km/h 18.5 km/h 78 % 0 mm
08:32 12.7 °C 8.9 °C 1017.2 hPa SSE 13.2 km/h 20.4 km/h 78 % 0 mm
08:33 12.7 °C 8.9 °C 1017.2 hPa SSE 10.3 km/h 16.7 km/h 78 % 0 mm
08:38 12.9 °C 9.2 °C 1017.2 hPa SSE 13.5 km/h 18.5 km/h 78 % 0 mm
08:43 13 °C 9.1 °C 1016.8 hPa SSE 24.1 km/h 24.1 km/h 77 % 0 mm
08:44 13.1 °C 9.1 °C 1016.8 hPa SSE 24.1 km/h 24.1 km/h 77 % 0 mm
08:46 13.2 °C 9.4 °C 1016.5 hPa SSE 22.9 km/h 24.1 km/h 78 % 0 mm
08:49 13.3 °C 9.3 °C 1016.5 hPa SSE 17.5 km/h 31.5 km/h 77 % 0 mm
08:53 13.4 °C 9.4 °C 1016.8 hPa South 11.6 km/h 18.5 km/h 77 % 0 mm
08:55 13.4 °C 9.5 °C 1016.8 hPa North 7.9 km/h 24.1 km/h 77 % 0 mm
08:56 13.5 °C 9.6 °C 1016.8 hPa South 13.8 km/h 24.1 km/h 77 % 0 mm
09:00 13.9 °C 9.8 °C 1016.8 hPa SSE 17.9 km/h 24.1 km/h 76 % 0 mm
09:02 14.2 °C 9.8 °C 1016.8 hPa SSE 13.5 km/h 24.1 km/h 75 % 0 mm
09:03 14.3 °C 9.9 °C 1016.8 hPa SSE 14.6 km/h 20.4 km/h 75 % 0 mm
09:08 15 °C 10 °C 1016.8 hPa SE 17.1 km/h 18.5 km/h 72 % 0 mm
09:11 15.1 °C 9.7 °C 1016.8 hPa SE 15.4 km/h 20.4 km/h 70 % 0 mm
09:13 15.2 °C 9.7 °C 1016.5 hPa SSE 14.8 km/h 24.1 km/h 70 % 0 mm
09:15 15.2 °C 9.8 °C 1016.5 hPa SSE 9 km/h 18.5 km/h 70 % 0 mm
09:20 15.5 °C 9.8 °C 1016.8 hPa SE 14.8 km/h 18.5 km/h 69 % 0 mm
09:21 15.6 °C 9.9 °C 1016.8 hPa SSE 13.5 km/h 18.5 km/h 69 % 0 mm
09:25 15.5 °C 9.6 °C 1016.8 hPa SSE 15.3 km/h 20.4 km/h 68 % 0 mm
09:29 15.6 °C 9.9 °C 1016.5 hPa SE 11.7 km/h 20.9 km/h 69 % 0 mm
09:36 16.1 °C 10 °C 1016.5 hPa SE 12.6 km/h 14.8 km/h 67 % 0 mm
09:38 16.1 °C 9.8 °C 1016.5 hPa SE 18.5 km/h 22.5 km/h 66 % 0 mm
09:43 16.4 °C 9.8 °C 1016.5 hPa SE 10 km/h 16.7 km/h 65 % 0 mm
09:48 16.4 °C 9.8 °C 1016.5 hPa SE 17.9 km/h 24.1 km/h 65 % 0 mm
09:49 16.8 °C 10.2 °C 1016.5 hPa SSE 13.4 km/h 24.1 km/h 65 % 0 mm
09:53 17.2 °C 10.3 °C 1016.5 hPa South 12.9 km/h 18.5 km/h 64 % 0 mm
09:58 17.5 °C 9.9 °C 1016.1 hPa SSE 13.2 km/h 18.5 km/h 61 % 0 mm
10:02 17.7 °C 10.1 °C 1016.1 hPa South 13.8 km/h 18.5 km/h 61 % 0 mm
10:05 17.6 °C 9.7 °C 1016.1 hPa South 10.9 km/h 18.5 km/h 60 % 0 mm
10:11 17.7 °C 9.6 °C 1016.1 hPa South 13.5 km/h 16.7 km/h 59 % 0 mm
10:15 17.9 °C 9.8 °C 1016.1 hPa South 10.1 km/h 13 km/h 59 % 0 mm
10:22 18.6 °C 10.2 °C 1016.1 hPa South 12.6 km/h 22.2 km/h 58 % 0 mm
10:25 18.8 °C 9.8 °C 1016.1 hPa South 10.9 km/h 20.4 km/h 56 % 0 mm
10:31 18.8 °C 9.9 °C 1016.1 hPa South 6.9 km/h 11.1 km/h 56 % 0 mm
10:38 19.6 °C 9.7 °C 1016.1 hPa SE 18.2 km/h 24.1 km/h 53 % 0 mm
23:58 17.2 °C 11.5 °C 1012.8 hPa South 1.8 km/h 3.7 km/h 69 % 0 mm
Ararat Weather
Compliments of Weather Underground - 2 mb
Click here to send mail.


ABOUT

Live weather data from Ararat, Victoria, Australia, 3377
Data uploaded from Cumulus every 5 minutes to Weather Underground.
This site then downloads the raw data for formatting and display.
Metric and imperial data can be displayed. Graphs and historical data available.
Includes Sun and Moon times and rain image live from BOM.

Check out Ararat Weather on Facebook, Twitter and Google +

Help support ongoing costs by checking out the ads





Follow @AraratWeather